Location: Middlebury
(44.0153°N, 73.1678°W)
Time: 13:30:01
(UTC-05:00)

PROBA - Visible Passes

Search period start: 13 November 2025 00:00
Search period end: 23 November 2025 00:00
Orbit: 508 x 587 km, 98.0° (Epoch: 13 November)

Date Brightness Start Highest point End Pass type
(mag) Time Alt. Az. Time Alt. Az. Time Alt. Az.
13 Nov ? 05:09:01 10° NNE 05:12:25 33° E 05:15:48 10° SSE visible
13 Nov ? 17:29:42 10° SSW 17:33:00 25° W 17:36:14 10° NW visible
14 Nov ? 05:04:06 10° NE 05:07:22 28° E 05:10:38 10° SSE visible
14 Nov ? 17:24:31 10° SSW 17:27:57 28° W 17:31:19 10° NW visible
15 Nov ? 04:59:11 10° NE 05:02:18 25° E 05:05:25 10° SSE visible
15 Nov ? 17:19:21 10° SSW 17:22:53 32° W 17:26:23 10° NNW visible
16 Nov ? 04:54:16 10° NE 04:57:13 22° E 05:00:10 10° SSE visible
16 Nov ? 17:14:10 10° SSW 17:17:48 37° W 17:21:24 10° NNW visible
17 Nov ? 04:49:23 10° NE 04:52:07 19° E 04:54:51 10° SE visible
17 Nov ? 17:09:00 10° S 17:12:44 42° W 17:16:24 10° NNW visible
18 Nov ? 04:44:32 10° NE 04:47:00 17° E 04:49:28 10° SE visible
18 Nov ? 06:18:22 10° N 06:21:46 34° WNW 06:25:10 10° SW visible
18 Nov ? 17:03:51 10° S 17:07:38 49° W 17:11:22 10° NNW visible
19 Nov ? 04:39:43 10° ENE 04:41:52 15° E 04:44:01 10° SE visible
19 Nov ? 06:13:12 10° N 06:16:42 39° WNW 06:20:12 10° SW visible
19 Nov ? 16:58:42 10° S 17:02:31 57° WSW 17:06:18 10° NNW visible
20 Nov ? 04:34:58 10° ENE 04:36:42 13° E 04:38:27 10° ESE visible
20 Nov ? 06:08:01 10° N 06:11:36 46° WNW 06:15:12 10° SW visible
20 Nov ? 16:53:34 10° S 16:57:24 66° WSW 17:01:12 10° NNW visible
21 Nov ? 04:30:24 10° ENE 04:31:32 11° E 04:32:39 10° ESE visible
21 Nov ? 06:02:50 10° N 06:06:29 53° WNW 06:10:10 10° SSW visible
21 Nov ? 16:48:25 10° S 16:52:16 78° WSW 16:56:05 10° NNW visible
22 Nov ? 05:57:40 10° N 06:01:22 62° WNW 06:05:06 10° SSW visible
